Theta_e
349 347 347 348 347 347 354 355 353 355 356 355 353 353 349 350 349 346 348 345 349 350 349 338 338 338 322 336 338 339 343 344 344 344 342 341 339 339 336 332 328 326 320
351 349 354 352 350 343 348 355 354 350 354 356 355 353 350 347 345 346 347 350 349 348 346 347 344 344 337 333 337 335 337 336 337 341 343 342 341 340 338 335 332 330 325
353 354 360 357 353 350 350 353 350 353 353 349 348 348 348 348 347 348 351 353 355 351 351 350 346 344 344 341 333 336 336 335 334 337 342 343 341 340 337 334 332 331 330
356 356 360 359 355 348 357 354 353 356 357 355 354 353 353 352 354 355 354 357 357 353 351 348 348 347 343 347 342 337 332 334 333 337 343 342 340 339 338 337 333 332 329
357 358 358 354 348 343 341 349 343 354 357 357 358 357 356 357 357 357 358 356 353 349 348 347 335 334 333 340 338 340 339 335 333 331 342 343 341 340 340 338 335 334 328
356 355 351 351 347 342 341 344 349 348 351 356 356 357 360 360 359 357 355 343 338 336 330 333 338 336 335 336 337 339 338 339 335 335 336 341 343 342 340 338 334 333 329
354 352 351 348 352 349 347 350 358 357 357 353 350 348 345 347 352 358 358 357 351 348 342 335 335 342 343 338 336 340 339 340 339 332 337 338 339 342 340 339 336 333 328
348 350 356 358 358 357 354 345 333 331 333 335 338 343 346 345 349 349 347 348 358 353 354 351 349 345 346 343 336 339 339 338 340 335 332 337 339 339 341 339 337 336 329
328 331 327 334 337 340 346 351 350 338 337 340 339 340 340 339 342 344 349 344 338 343 346 353 353 349 348 347 336 337 338 338 340 337 333 329 333 335 336 340 337 333 331
327 342 348 356 354 351 345 334 332 333 336 341 343 343 345 342 343 344 345 341 342 344 341 341 348 352 351 349 343 336 335 339 340 341 336 329 323 319 326 335 337 334 330
337 345 342 345 335 333 333 334 335 337 342 345 347 346 342 339 340 344 344 350 346 343 344 343 344 350 349 349 349 346 346 340 340 340 339 330 326 316 319 330 334 333 331
340 337 334 334 335 347 347 340 341 345 346 346 344 343 341 340 336 340 345 345 345 346 344 343 349 344 345 347 347 348 347 343 342 338 339 337 331 324 321 330 332 331 329
347 344 342 341 336 339 341 346 344 344 345 343 341 340 338 336 339 343 343 341 340 340 342 342 343 343 342 344 344 345 348 344 338 338 338 339 339 334 324 327 330 329 326
350 351 351 350 347 347 348 347 347 344 340 340 338 337 337 340 343 339 338 337 337 337 337 338 339 340 343 344 344 344 345 347 346 339 338 338 336 332 330 328 327 328 325
358 355 353 349 351 348 347 342 342 339 338 338 338 338 339 339 339 337 336 335 334 335 337 337 337 337 338 341 342 340 344 344 344 345 343 341 335 332 332 330 330 329 327
354 351 350 349 347 345 340 339 340 339 337 336 335 334 333 332 332 332 332 332 331 331 332 334 335 335 335 335 336 340 340 343 344 344 343 344 340 333 332 331 330 330 329
349 350 344 343 341 340 339 340 338 338 335 334 332 332 332 331 331 331 330 327 324 324 325 328 333 338 338 337 339 337 337 338 341 341 342 343 343 341 333 332 331 330 330
343 341 340 341 341 339 338 337 335 334 333 332 331 331 330 330 330 328 324 324 324 324 324 325 330 334 336 337 337 339 339 337 336 341 341 343 342 341 340 333 331 330 330
343 342 341 338 334 336 334 334 333 332 331 330 329 329 329 328 326 324 322 322 323 324 324 324 324 326 331 334 336 337 339 340 337 337 338 338 337 338 339 338 332 330 329
340 337 335 331 334 334 333 333 331 329 329 328 327 326 324 322 321 321 323 323 322 323 324 323 323 322 326 328 332 333 333 334 335 336 335 334 335 334 336 336 334 330 330
335 335 333 333 333 332 330 329 328 328 328 326 322 321 320 320 320 320 321 322 322 322 323 323 323 325 325 326 328 330 332 333 333 333 334 334 334 334 334 335 334 332 329
334 334 333 332 331 330 328 327 327 327 326 321 319 319 319 319 320 320 320 321 321 320 320 320 322 324 325 327 328 329 330 331 332 332 332 333 335 335 334 335 336 333 329
331 331 330 329 328 328 327 326 326 325 319 319 319 319 318 318 317 316 317 318 319 319 320 320 319 320 320 322 326 328 328 330 331 332 332 330 332 332 333 334 334 335 331
329 329 328 328 327 327 326 325 323 316 316 319 317 314 314 314 314 317 316 317 317 317 317 318 318 318 319 319 320 322 326 329 331 331 332 331 330 333 333 334 333 333 334
328 327 326 326 325 324 323 320 316 313 316 315 311 310 311 309 308 308 308 311 314 317 317 316 317 319 320 320 321 321 321 323 329 330 331 331 331 332 332 334 332 333 332
326 326 325 324 323 321 319 317 314 308 308 312 313 310 308 307 303 303 307 309 313 315 316 316 317 319 319 319 318 319 320 321 322 325 329 330 331 331 331 333 331 332 332
Wind_Speed
18 19 20 19 17 18 19 16 15 15 10 12 12 11 10 12 11 10 10 12 12 11 10 12 11 8 17 20 13 15 14 18 24 19 28 29 22 18 15 12 12 9 8
17 18 14 13 9 15 19 22 19 20 21 18 17 17 16 16 16 16 15 15 17 15 11 13 14 13 14 20 18 17 19 18 16 17 24 32 26 21 18 15 12 10 7
13 17 17 14 11 13 12 13 19 15 13 16 19 20 19 19 21 21 21 19 17 18 19 18 17 18 18 18 24 21 20 21 18 15 19 31 28 24 20 19 17 13 12
13 17 20 20 15 14 19 16 15 15 16 17 17 18 19 21 22 24 25 24 25 23 20 10 10 17 23 24 19 18 22 24 22 14 20 26 29 24 23 22 23 19 20
14 14 18 16 14 11 18 19 14 16 18 19 19 21 23 25 27 29 29 27 17 7 4 6 8 17 11 16 20 25 18 23 23 21 20 25 28 30 26 19 22 19 22
16 15 14 9 8 8 11 13 13 13 15 15 18 20 19 21 24 27 28 21 24 23 14 13 21 21 15 20 16 28 23 24 29 23 24 26 28 30 25 19 14 18 23
15 15 12 9 8 9 9 10 9 6 5 7 8 10 13 15 16 19 20 21 22 22 20 30 24 31 21 23 15 28 24 25 22 28 26 25 28 26 27 23 20 15 18
9 10 10 9 8 7 5 4 4 2 3 5 7 11 16 18 16 16 19 20 16 14 23 26 21 23 21 18 19 23 25 23 27 26 30 26 18 10 22 26 22 17 14
15 14 14 12 12 11 7 3 5 4 3 7 10 12 13 17 18 18 20 19 17 17 16 18 19 27 23 15 23 18 17 19 26 27 27 28 29 28 18 21 28 21 23
19 18 15 11 9 9 8 6 2 4 9 11 10 11 15 18 21 20 17 16 16 16 16 15 12 14 20 23 21 24 24 17 21 27 30 30 29 28 29 23 24 27 29
21 18 16 13 11 6 4 3 7 11 13 10 14 13 13 18 19 21 24 23 14 16 17 16 15 13 12 12 20 26 29 21 20 24 25 25 25 28 28 28 27 27 26
18 16 14 11 9 6 4 7 11 10 11 14 11 10 19 23 28 20 11 9 14 15 14 15 12 14 11 9 9 12 18 22 20 25 25 26 26 24 30 29 28 27 26
12 10 8 7 8 5 4 6 8 10 15 17 14 19 21 22 19 14 15 15 16 16 16 17 16 15 14 14 16 15 12 16 19 22 27 27 27 25 26 29 28 26 27
10 8 7 4 2 3 9 7 10 15 13 11 14 17 16 15 14 17 17 19 19 19 16 16 18 19 18 17 17 18 20 18 20 25 27 28 28 29 30 29 30 30 33
12 10 4 1 3 2 2 6 5 5 10 11 10 9 10 12 15 18 19 22 23 22 24 22 21 21 22 22 23 21 23 24 26 26 27 29 33 30 32 31 29 27 33
10 9 6 5 5 5 5 5 6 8 9 7 8 9 12 10 12 16 19 23 25 26 25 24 24 25 26 25 24 25 24 24 27 27 27 29 34 38 32 36 37 35 32
11 7 3 3 2 2 5 7 5 4 6 11 15 14 11 15 20 25 30 30 28 25 23 22 20 21 24 27 27 23 27 28 25 26 28 31 32 37 41 37 38 41 42
4 4 5 4 4 4 7 3 4 8 11 10 11 13 17 22 27 31 32 28 24 24 25 25 21 20 22 25 26 27 25 22 24 27 27 29 32 34 40 47 45 42 42
1 1 1 7 5 2 1 3 5 8 8 10 15 22 26 29 30 25 27 27 28 30 31 30 26 25 24 23 21 22 24 23 23 24 25 26 28 31 35 40 50 48 46
3 3 4 3 2 2 3 4 5 5 8 12 18 22 26 24 26 26 24 27 29 31 32 30 30 25 23 26 29 26 26 26 26 26 27 30 29 28 32 37 42 53 48
7 6 6 5 3 2 3 2 3 8 11 13 11 15 20 22 21 24 25 24 25 28 29 30 30 27 24 29 30 28 28 29 30 34 34 32 32 34 32 34 38 45 46
7 10 6 3 1 4 1 1 4 9 13 14 14 14 15 20 21 23 24 24 26 28 28 28 27 26 24 22 24 26 29 30 30 29 32 35 35 36 34 35 34 40 47
8 6 4 3 1 5 3 4 8 11 11 9 10 15 18 20 23 25 26 26 27 27 26 26 27 27 27 25 24 22 23 29 33 33 33 32 38 40 39 41 39 39 44
6 5 4 3 3 3 7 8 10 7 6 7 11 15 19 22 23 24 26 27 27 28 28 27 28 30 29 29 29 26 25 27 30 32 36 33 35 42 43 49 35 41 42
6 4 4 5 4 4 7 8 6 8 7 8 13 18 18 21 24 26 27 27 29 27 29 29 31 30 29 30 31 30 29 31 29 34 32 31 33 36 39 45 39 39 40
6 6 5 2 4 4 6 9 10 12 11 12 17 21 22 24 25 25 26 25 28 30 29 31 30 29 31 32 33 34 31 29 30 34 34 32 34 35 36 44 38 43 43
Wind_Direction
231 221 218 223 221 219 212 221 212 219 227 242 266 275 259 255 260 268 260 249 247 248 258 257 247 243 224 222 230 237 235 248 251 254 234 232 232 237 242 232 224 226 220
229 221 214 218 232 238 228 223 227 230 228 232 242 254 260 263 265 263 259 255 255 260 267 262 267 266 255 238 236 232 230 241 250 244 231 222 225 231 244 245 236 237 235
211 207 215 223 218 222 221 228 232 235 239 240 245 254 259 259 261 263 262 260 257 247 245 237 241 253 255 250 237 236 239 240 247 245 233 220 220 225 232 240 241 244 229
208 206 204 202 223 229 229 233 226 234 253 261 263 266 267 269 267 265 262 257 246 240 240 248 285 287 303 254 247 236 240 241 247 237 229 216 218 227 234 242 230 234 237
211 211 225 230 222 228 220 229 242 241 250 259 264 267 270 272 273 273 271 260 229 190 221 289 318 343 9 259 263 230 234 246 236 228 224 218 220 222 226 245 235 236 230
216 220 211 230 249 232 218 227 244 254 270 270 272 275 277 280 280 281 282 103 20 291 308 274 278 248 290 277 279 216 221 233 236 229 227 231 237 235 232 237 229 213 221
209 208 224 238 233 228 223 234 253 279 298 307 310 312 311 311 311 302 298 293 257 272 270 259 276 254 261 275 283 223 239 234 233 228 226 233 245 246 245 236 234 237 228
169 165 151 145 143 142 143 144 120 81 9 356 348 340 332 327 322 310 316 310 301 272 275 275 274 260 260 272 271 236 240 249 235 229 229 227 235 243 244 254 260 260 229
135 136 128 136 132 128 126 179 235 250 297 332 340 341 346 343 326 320 313 318 312 305 305 294 281 254 263 268 250 247 255 247 231 231 233 229 232 242 249 234 233 225 221
148 148 144 156 163 183 195 201 243 316 334 331 343 337 334 333 326 311 300 313 312 328 325 297 288 285 282 265 252 253 251 254 243 238 238 234 236 242 243 235 233 229 224
158 163 167 177 178 180 223 269 327 329 331 339 337 341 339 334 329 328 305 279 303 313 330 324 310 310 306 276 262 254 258 253 243 235 237 237 238 238 236 234 234 238 244
169 175 181 183 189 209 252 321 326 333 334 333 334 318 330 327 334 334 328 323 297 312 314 318 303 305 296 298 288 278 257 255 237 232 236 238 238 236 234 235 238 246 250
184 194 206 214 221 258 292 334 356 342 326 323 332 325 334 343 355 354 348 340 328 321 317 319 321 312 310 287 283 278 284 248 238 236 237 241 245 249 245 239 239 245 244
202 215 240 256 302 328 324 329 325 324 319 328 337 346 349 353 351 346 345 344 341 338 331 313 303 301 296 290 275 267 271 270 261 246 245 249 252 250 247 242 240 236 233
198 217 234 215 306 340 346 348 349 1 0 358 356 353 339 330 331 329 325 324 324 322 319 320 318 314 308 300 296 285 269 268 263 260 252 249 239 242 245 246 243 232 231
196 192 214 202 259 289 319 311 323 346 354 11 9 352 346 341 330 326 322 320 318 317 316 317 315 314 312 306 297 289 287 269 264 264 260 260 243 232 234 238 238 238 231
214 206 178 242 264 305 334 340 356 327 345 357 358 347 346 334 325 321 321 320 322 321 320 316 313 313 311 312 308 304 282 281 279 267 260 262 254 244 230 229 236 238 235
160 210 237 230 257 296 337 360 334 347 357 6 343 325 319 317 317 318 321 322 320 325 329 318 305 311 310 306 302 299 298 299 286 278 272 265 258 256 247 233 231 237 239
185 158 332 317 322 51 159 282 316 322 334 328 316 308 312 316 320 323 327 333 338 335 332 324 316 295 286 295 305 309 294 284 289 285 284 282 271 260 254 250 232 233 236
154 283 329 132 145 221 275 322 343 333 326 326 328 326 322 328 336 339 345 351 352 349 344 335 328 313 295 291 283 286 296 296 290 283 286 285 281 272 262 255 242 229 231
125 158 179 175 189 312 353 24 342 324 326 332 339 324 333 338 349 356 354 358 357 353 349 348 346 339 314 298 290 287 292 292 289 291 288 281 272 273 270 262 253 237 228
116 161 174 181 255 341 117 284 312 312 317 320 328 341 352 3 6 4 2 357 356 355 354 349 346 344 342 334 320 300 286 289 287 289 285 284 276 266 267 262 256 245 230
122 99 70 59 66 135 150 277 294 312 321 333 347 4 13 13 13 11 6 2 360 356 356 355 353 351 348 335 319 311 303 288 283 291 285 282 273 267 267 257 256 249 239
134 118 107 136 177 232 268 286 309 326 339 4 11 10 6 3 4 3 3 0 358 359 358 350 345 342 337 336 331 316 297 284 282 281 288 284 279 265 261 257 252 247 246
137 139 137 165 201 273 289 300 332 346 346 358 9 360 352 354 356 355 353 356 358 359 360 356 353 351 348 344 339 326 305 291 278 272 272 276 275 269 261 244 254 246 246
159 164 202 218 288 310 325 341 350 354 5 18 353 347 346 342 342 349 351 355 357 359 358 358 357 359 357 355 355 350 339 318 297 279 279 270 273 264 264 252 254 243 247